Home   Weather   Königswinter   Past weeks

Flag for Germany Past Weather in Königswinter, North Rhine-Westphalia, Germany — Yesterday and Last 2 Weeks

Now
48 °F

Drizzle. Overcast.


Feels Like: 42 °F
Forecast: 42 / 51 °F
Wind: 13 mph from Southwest

Location: Aachen-Orsbach

Current Time: Feb 22, 2017 at 7:19:59 am

Latest Report: Feb 22, 2017 at 6:00 am


Visibility: 19 mi

Pressure: 29.83 "Hg

Humidity: 91%

Dew Point: 45 °F

Location of KönigswinterLocation

Past Weather in Königswinter — Graph

°F

Königswinter Temperature Yesterday

Maximum temperature yesterday: 49 °F (at 12:00 am)
Minimum temperature yesterday: 47 °F (at 2:00 pm)
Average temperature yesterday: 48 °F

High & Low Weather Summary for the Past Weeks

 TemperatureHumidityPressure
High61 °F (Feb 15, 3:00 pm)100% (Feb 7, 8:00 pm)30.51 "Hg (Feb 7, 8:00 pm)
Low29 °F (Feb 10, 2:00 am)49% (Feb 15, 2:00 pm)29.83 "Hg (Feb 22, 6:00 am)
Average41 °F85%30.23 "Hg
* Reported Feb 7 6:00 am — Feb 22 6:00 am, Königswinter, Weather by CustomWeather, © 2017

Note: Actual official high and low records may vary slightly from our data, if they occured in-between our weather recording intervals... More about our weather records

Advertising

Königswinter Weather History for the Previous 24 Hours

Scroll right to see more
 ConditionsComfort  
Time TempWeatherWind HumidityBarometerVisibility
6:00 am
Wed, Feb 22
48 °FDrizzle. Overcast.13 mph91%29.83 "Hg19 mi
5:00 am48 °FDrizzle. Low clouds.12 mph94%29.84 "Hg8 mi
3:00 am49 °FLow clouds.12 mph95%29.88 "Hg6 mi
2:00 am49 °FLow clouds.10 mph94%29.88 "Hg22 mi
12:00 am49 °FLight rain. Low clouds.12 mph93%29.92 "Hg5 mi
11:00 pm
Tue, Feb 21
49 °FLow clouds.10 mph94%29.93 "Hg13 mi
9:00 pm49 °FDrizzle. Low clouds.7 mph97%29.97 "Hg2 mi
8:00 pm49 °FLow clouds.7 mph96%29.98 "Hg4 mi
6:00 pm47 °FPassing clouds.10 mph99%30.01 "Hg2 mi
5:00 pm47 °FDrizzle. Low clouds.6 mph99%30.01 "Hg3 mi
3:00 pm48 °FDrizzle. Low clouds.6 mph97%30.02 "Hg4 mi
2:00 pm47 °FRain. Low clouds.7 mph97%30.03 "Hg4 mi
1:00 pmN/APassing clouds.8 mphN/AN/A9 mi
12:00 pm49 °FLight rain. Low clouds.9 mph95%30.03 "Hg7 mi
11:00 am48 °FLight rain. Passing clouds.10 mph99%30.03 "Hg7 mi
9:00 am48 °FFog.8 mph97%30.01 "Hg4 mi
8:00 am48 °FPassing clouds.1 mph99%30.00 "Hg3 mi
Weather by CustomWeather, © 2017

See weather overviewHow to use our weather pages